Regional Weather Roundup
Issued by NWS

Home | Current Version | Previous Version | Text Only | Print | Product List | Glossary Off
Versions: 1 2 3 4 5 6 7 8 9 10 11 12 13 14 15 16 17 18 19 20 21 22 23 24 25 26 27 28 29 30 31 32 33 34 35 36 37 38 39 40 41 42 43 44 45 46 47 48 49 50

000
ASUS43 KFSD 020602
RWRSD

WEATHER ROUNDUP FOR SOUTH DAKOTA
NATIONAL WEATHER SERVICE SIOUX FALLS SD
100 AM CDT THU APR 02 2015

NOTE: "FAIR" INDICATES FEW OR NO CLOUDS BELOW 12,000 FEET WITH NO
SIGNIFICANT WEATHER AND/OR OBSTRUCTIONS TO VISIBILITY.


SDZ001>005-009-010-012>017-020700-
NORTHWEST AND NORTH CENTRAL SOUTH DAKOTA

CITY           SKY/WX    TMP DP  RH WIND       PRES   REMARKS
BUFFALO          N/A     30  15  53 W9        29.75F WCI  22
FAITH            N/A     34  12  40 W10       29.79F WCI  26
MOBRIDGE       MOCLDY    35  23  61 NW7       29.71F WCI  29
$$

SDZ012>016-024>037-041>051-057-063-072>074-020700-
SOUTHWEST AND SOUTH CENTRAL SOUTH DAKOTA

CITY           SKY/WX    TMP DP  RH WIND       PRES   REMARKS
RAPID CTY ARPT CLEAR     34  13  41 W9        29.85S WCI  27
PIERRE         CLOUDY    43  19  38 NW10      29.77R
CUSTER         CLEAR     29   8  41 NW5       29.87S WCI  24
ELLSWORTH AFB  CLEAR     34  12  40 W10       29.83F WCI  26
PHILIP         MOCLDY    33  14  45 W9        29.81S WCI  25
PINE RIDGE     MOCLDY    33  18  53 CALM      29.86R
WINNER         FAIR      49  19  30 NW3       29.82R
$$

SDZ004>011-016>023-039-040-020700-
NORTHEAST SOUTH DAKOTA

CITY           SKY/WX    TMP DP  RH WIND       PRES   REMARKS
ABERDEEN       MOCLDY    47  25  42 NW9       29.76R
WATERTOWN      MOCLDY    45  32  60 NW8       29.74R
BROOKINGS      CLOUDY    46  30  53 NW6       29.77R
SISSETON         N/A     47  29  49 NW15      29.70R
$$

SDZ017-020-022-023-036>040-048>070-020700-
SOUTHEAST SOUTH DAKOTA

CITY           SKY/WX    TMP DP  RH WIND       PRES   REMARKS
SIOUX FALLS    CLOUDY    54  30  40 N10       29.76R
HURON          CLOUDY    41  27  57 NW7       29.77R
MITCHELL       CLOUDY    50  28  42 NW10      29.78R
YANKTON        CLOUDY    55  28  35 NW10      29.80R
$$

ABBREVIATIONS USED IN REMARKS
   TC - TEMPERATURE IN CELSIUS
  WCI - WIND CHILL INDEX
   HX - HEAT INDEX
  VSB - VISIBILITY



USA.gov is the U.S. government's official web portal to all federal, state and local government web resources and services.